Wind_Speed
19 19 19 17 20 26 29 30 31 34 33 32 33 27 18 14 10 7 10 12 17 16 19 15 14 11 14 17 20 17 25 26 26 28 28 24 16 17 13 8 5 15 21
20 24 27 26 24 25 27 33 36 35 33 32 31 22 17 11 8 8 7 9 16 19 20 18 22 12 12 16 17 19 24 24 25 31 29 24 20 14 14 10 6 2 17
22 25 25 26 27 29 32 35 33 30 30 27 21 16 11 11 8 6 6 10 14 11 17 20 23 22 21 15 12 19 19 23 27 28 28 27 14 19 12 14 9 5 3
19 20 21 23 23 28 29 30 30 28 24 21 18 15 12 10 8 7 2 7 7 15 17 22 25 23 18 19 15 17 21 23 24 26 23 23 18 18 8 9 6 3 3
15 20 17 17 18 20 25 27 29 28 25 25 23 21 18 17 12 10 12 12 15 17 21 22 26 25 22 20 15 20 24 24 24 25 23 19 16 10 6 0 7 9 6
12 15 15 17 14 14 20 24 25 25 25 22 19 17 18 13 11 13 14 16 14 18 19 22 22 24 22 16 18 21 26 22 24 24 21 23 14 20 12 8 8 3 4
12 13 13 14 16 16 16 20 22 21 20 18 18 17 14 15 16 17 15 14 16 18 18 19 20 25 20 14 28 31 23 27 30 23 24 24 21 22 14 8 13 8 9
11 14 11 12 14 15 17 19 18 18 20 19 19 18 15 13 15 13 14 14 14 14 17 18 19 30 33 22 28 26 25 34 21 23 32 29 29 22 15 9 12 13 8
11 11 9 8 11 11 11 13 14 15 16 14 14 14 14 12 11 14 16 17 19 22 23 24 24 21 24 26 21 26 34 33 16 45 32 34 34 28 19 14 19 17 13
12 11 9 8 7 8 9 10 11 11 10 9 8 9 11 11 11 15 14 17 18 16 19 25 22 27 28 31 26 31 29 34 23 38 28 39 37 27 24 18 13 17 20
9 13 9 9 11 7 6 8 9 10 9 7 6 10 9 9 9 11 15 14 8 12 17 21 26 28 33 35 17 28 22 27 34 31 22 24 28 26 27 19 10 11 15
10 11 12 10 9 9 7 6 4 5 7 6 7 10 5 6 4 6 8 8 9 14 15 18 32 26 31 27 17 27 23 30 29 31 27 24 24 24 22 14 6 11 14
9 11 12 12 11 10 11 9 6 2 2 4 4 4 2 2 3 3 4 8 11 9 16 20 22 25 25 22 22 23 26 31 31 31 24 20 17 20 18 13 15 19 14
6 8 13 13 13 12 11 12 9 6 4 3 5 5 4 5 7 7 8 9 7 11 16 18 23 25 25 24 21 22 24 25 26 28 22 19 19 19 20 16 15 19 19
11 9 12 16 14 14 13 14 13 11 8 7 9 9 9 8 10 10 7 6 6 17 19 20 22 27 25 21 16 16 20 23 28 27 25 21 19 22 23 22 15 12 13
13 14 10 16 18 16 13 14 14 14 14 15 14 14 12 8 11 9 8 9 12 10 15 22 21 21 23 18 12 13 17 24 26 32 28 22 21 21 19 22 21 16 14
18 17 17 13 20 18 17 16 14 15 15 17 18 17 15 11 10 8 4 12 11 14 18 20 22 21 20 10 5 17 18 21 25 28 29 30 21 20 18 20 21 17 12
21 20 21 17 17 21 19 17 14 13 16 17 20 19 16 12 12 10 8 3 10 18 19 24 22 20 11 14 15 14 17 20 25 33 30 30 27 22 18 19 20 19 12
25 23 21 21 19 21 23 20 16 13 16 19 20 21 17 14 14 12 14 14 13 14 19 23 23 19 14 15 17 15 18 21 24 32 33 33 29 25 21 17 17 20 16
26 25 23 22 21 21 25 23 20 15 15 18 21 21 20 18 16 16 15 18 14 12 18 25 25 18 13 11 14 18 23 26 24 30 34 30 30 28 23 21 20 20 21
23 25 26 22 22 23 23 27 24 19 17 18 21 22 22 19 17 19 18 15 11 11 13 21 17 19 21 20 18 23 24 27 26 31 31 28 30 29 27 26 24 24 22
19 22 24 25 25 23 23 27 27 22 19 20 21 23 22 22 19 17 18 17 12 12 15 12 18 10 21 23 23 24 26 27 30 32 32 29 31 32 26 23 23 23 25
16 21 23 25 26 26 24 24 28 25 22 22 22 23 23 24 20 18 18 16 19 20 19 17 10 16 23 20 21 24 24 27 29 31 31 24 32 35 31 27 22 24 27
13 18 21 23 23 23 21 22 26 28 26 23 22 23 24 24 22 21 21 22 26 25 24 14 19 18 22 24 24 23 25 27 23 32 30 18 36 35 31 33 27 28 28
10 13 18 21 24 24 24 24 27 29 29 27 23 22 24 22 22 23 24 25 28 30 32 28 27 25 26 31 36 31 25 31 30 30 32 37 31 39 36 34 30 33 31
17 14 14 17 21 24 25 27 29 30 31 31 28 25 25 26 25 27 29 31 32 33 33 33 33 33 35 37 37 34 33 33 34 34 31 32 39 41 39 38 37 35 33
Wind_Direction
41 46 60 87 91 100 109 115 119 118 122 130 142 144 138 121 101 97 67 61 31 34 38 45 39 35 29 15 28 51 46 37 27 23 23 25 28 33 40 42 30 22 38
59 69 74 84 95 107 113 117 116 114 121 133 142 143 150 143 135 91 77 50 33 38 45 40 34 32 27 27 50 48 37 28 21 18 15 15 24 27 24 30 23 338 31
81 81 83 84 91 102 108 112 113 118 119 129 137 144 138 142 121 100 110 17 13 31 27 36 35 43 43 33 32 41 31 23 23 23 22 17 23 358 23 20 38 49 305
96 94 88 86 85 101 106 107 114 120 116 113 110 106 119 135 128 93 333 350 7 28 31 39 34 36 30 31 35 19 20 18 18 20 21 11 3 350 18 26 45 18 26
102 104 89 81 83 93 101 111 116 114 110 103 99 104 99 89 105 80 77 63 58 41 44 38 32 34 32 33 21 5 4 7 6 10 8 1 1 353 314 112 93 85 57
126 107 96 80 83 108 103 109 114 112 109 106 104 102 87 67 89 91 85 67 59 43 44 44 31 28 30 26 10 1 5 350 359 360 18 8 346 347 323 265 255 316 264
135 116 93 86 79 110 111 115 116 115 114 111 93 85 74 84 99 97 79 59 45 38 47 44 32 28 19 20 13 14 21 8 353 22 4 13 0 337 309 292 253 269 275
132 120 108 95 93 99 107 114 112 113 117 108 95 90 95 88 80 87 61 51 32 38 47 50 25 24 19 22 7 20 2 358 43 13 356 14 6 358 335 270 254 267 278
157 136 120 115 115 99 119 117 113 117 129 117 92 104 91 85 70 58 52 40 49 51 59 40 31 11 10 2 18 8 15 19 28 11 355 0 5 354 346 297 261 269 258
158 165 148 135 142 115 112 122 122 129 137 132 119 105 86 77 66 57 53 44 48 38 11 26 22 18 4 4 11 14 20 33 351 354 349 344 357 348 347 340 308 282 267
166 172 171 159 162 164 140 117 118 115 122 132 136 124 93 78 68 57 48 46 47 20 10 18 12 12 8 12 17 21 17 353 7 358 358 342 350 348 351 344 346 316 285
175 180 186 189 187 180 184 183 154 117 121 122 137 132 116 64 52 49 34 24 22 27 25 10 17 6 8 10 339 330 1 5 1 354 359 355 2 7 353 344 318 344 322
194 191 196 198 210 218 205 209 209 199 157 163 140 141 174 309 299 287 352 346 359 3 357 5 358 356 355 351 343 348 351 1 357 352 2 11 9 19 1 338 309 317 333
221 219 210 213 216 229 231 226 218 231 243 235 234 205 213 261 265 307 315 358 13 331 348 352 346 348 352 344 343 337 343 355 353 349 3 11 21 22 21 352 320 297 302
228 214 233 225 226 227 234 244 247 240 243 247 247 246 259 252 263 273 286 310 309 340 326 343 343 340 341 341 333 343 347 347 359 353 354 359 13 26 23 18 9 346 319
243 237 225 232 232 234 238 245 252 253 250 252 256 257 264 272 253 248 270 333 315 340 317 326 338 339 330 329 319 352 349 352 351 358 358 354 353 7 14 22 19 16 4
257 250 240 238 233 235 235 242 253 256 256 251 250 255 265 269 238 245 290 348 321 310 333 322 335 346 339 340 316 332 328 343 347 350 352 355 343 352 2 7 21 20 10
251 260 243 240 242 237 237 238 246 259 266 251 247 250 257 260 246 261 248 316 272 298 312 324 336 355 349 5 353 320 329 347 347 355 351 346 352 337 343 350 354 6 14
245 248 244 242 246 244 239 237 239 257 268 260 248 245 245 250 244 256 273 283 289 319 325 329 340 337 330 324 299 337 343 350 344 348 348 344 354 344 331 332 333 340 355
245 240 243 243 248 256 244 241 243 250 270 264 250 241 236 244 238 254 274 280 296 318 333 335 317 313 330 335 342 344 344 343 340 346 344 348 350 350 341 329 326 319 323
249 247 244 253 253 255 260 245 244 249 265 269 254 241 239 238 242 253 275 279 286 297 313 327 339 327 330 345 343 337 341 339 338 336 336 339 344 343 341 332 330 326 319
262 253 252 253 256 262 266 253 244 252 264 271 259 249 244 242 250 267 278 278 271 275 285 323 322 320 327 338 332 326 328 326 328 332 337 342 340 338 338 327 316 317 316
281 267 254 251 253 256 260 254 246 251 260 273 264 255 251 250 255 262 269 263 259 268 280 293 302 306 309 326 330 321 326 323 324 328 331 332 343 338 329 325 310 306 306
294 278 273 261 251 249 247 251 248 251 256 266 264 257 254 251 253 258 260 246 254 268 272 305 292 312 316 326 325 322 328 324 320 326 333 310 329 339 336 333 320 309 296
311 279 277 275 275 275 251 238 243 248 254 260 266 265 259 258 259 258 254 251 261 270 276 280 298 307 318 312 315 321 329 319 316 314 314 322 327 333 333 327 321 315 307
289 299 269 257 261 264 264 254 246 246 251 258 260 261 258 256 256 255 253 254 260 269 279 286 295 301 300 304 308 312 317 317 308 310 309 316 319 327 326 321 322 316 316
Height
11019 11015 11012 11011 11011 11009 11009 11009 11012 11016 11021 11026 11031 11034 11035 11036 11038 11039 11039 11038 11036 11035 11033 11031 11029 11027 11024 11022 11019 11018 11015 11011 11006 11002 11001 10999 10995 10992 10990 10986 10985 10983 10983
11023 11020 11018 11016 11016 11015 11016 11016 11019 11023 11027 11031 11035 11037 11038 11039 11040 11040 11039 11039 11038 11037 11035 11032 11030 11029 11028 11026 11023 11019 11016 11014 11009 11005 10999 10997 10994 10991 10988 10986 10983 10982 10984
11027 11026 11025 11024 11023 11023 11022 11023 11026 11029 11032 11035 11038 11040 11040 11041 11043 11042 11041 11041 11041 11039 11037 11035 11033 11032 11030 11026 11023 11018 11015 11013 11010 11006 11002 10997 10995 10992 10990 10986 10983 10982 10983
11032 11031 11030 11030 11030 11030 11029 11030 11032 11034 11037 11039 11040 11042 11043 11044 11044 11045 11043 11042 11042 11040 11038 11037 11035 11033 11031 11027 11024 11020 11015 11011 11009 11005 11002 10998 10996 10993 10992 10988 10985 10984 10984
11036 11035 11034 11034 11035 11035 11034 11035 11037 11039 11040 11042 11044 11045 11045 11045 11045 11045 11044 11043 11042 11040 11039 11038 11036 11034 11031 11029 11026 11022 11018 11014 11008 11006 11002 10999 10995 10991 10990 10990 10987 10985 10985
11038 11038 11038 11037 11038 11039 11039 11040 11041 11042 11043 11045 11047 11046 11046 11046 11044 11044 11043 11042 11040 11039 11039 11037 11036 11034 11032 11029 11026 11021 11018 11011 11005 11002 11000 10996 10993 10991 10988 10988 10988 10985 10985
11040 11040 11041 11041 11041 11041 11042 11043 11043 11044 11046 11048 11048 11048 11047 11046 11044 11044 11044 11043 11042 11041 11040 11039 11037 11033 11029 11025 11022 11019 11016 11011 11005 11000 10998 10993 10990 10988 10987 10985 10987 10987 10984
11042 11041 11043 11044 11045 11045 11045 11045 11046 11047 11048 11049 11050 11049 11048 11047 11046 11046 11046 11045 11044 11043 11042 11040 11037 11031 11026 11022 11021 11019 11016 11011 11007 11005 10999 10992 10988 10983 10982 10983 10986 10986 10984
11042 11042 11043 11046 11047 11047 11047 11048 11048 11049 11051 11051 11052 11051 11049 11049 11048 11048 11047 11047 11046 11045 11044 11040 11037 11031 11026 11021 11018 11016 11013 11007 11008 11004 10999 10992 10986 10983 10981 10981 10983 10984 10984
11042 11043 11044 11046 11048 11049 11049 11049 11049 11051 11052 11053 11052 11052 11050 11050 11050 11048 11046 11048 11049 11047 11045 11041 11035 11031 11026 11022 11022 11017 11012 11009 11008 11006 11000 10993 10988 10986 10980 10978 10979 10981 10982
11041 11042 11045 11047 11048 11048 11049 11050 11051 11053 11053 11053 11054 11054 11052 11051 11049 11048 11047 11047 11049 11047 11047 11044 11037 11033 11028 11023 11023 11019 11014 11006 11005 11005 11000 10995 10992 10986 10980 10977 10979 10980 10979
11040 11042 11043 11045 11047 11048 11048 11050 11052 11054 11055 11055 11055 11054 11052 11052 11048 11048 11047 11046 11047 11048 11046 11043 11043 11038 11031 11026 11023 11021 11016 11008 11006 11005 11000 10998 10994 10988 10983 10981 10982 10981 10979
11041 11041 11042 11043 11044 11046 11047 11049 11051 11054 11056 11056 11054 11053 11053 11051 11047 11045 11047 11047 11048 11049 11047 11040 11042 11039 11035 11027 11022 11018 11013 11007 11005 11005 11002 11000 10995 10989 10986 10984 10983 10982 10979
11040 11041 11041 11042 11042 11044 11045 11047 11050 11053 11054 11054 11053 11051 11051 11049 11046 11046 11048 11049 11048 11051 11047 11042 11038 11036 11034 11029 11021 11017 11014 11013 11011 11009 11007 11002 10997 10990 10986 10986 10985 10982 10979
11038 11040 11040 11040 11040 11042 11044 11045 11047 11050 11052 11052 11050 11048 11048 11049 11047 11045 11045 11046 11049 11048 11046 11041 11036 11034 11030 11031 11029 11022 11019 11016 11012 11009 11005 11002 10998 10992 10990 10988 10985 10980 10976
11035 11038 11038 11037 11038 11040 11042 11043 11045 11047 11049 11048 11047 11045 11045 11048 11046 11045 11043 11046 11048 11046 11040 11040 11038 11034 11029 11030 11028 11026 11023 11018 11013 11009 11006 11001 10999 10994 10992 10990 10986 10981 10976
11032 11033 11034 11035 11035 11037 11039 11041 11043 11044 11046 11045 11043 11043 11043 11045 11043 11044 11044 11045 11043 11041 11035 11037 11035 11034 11026 11025 11024 11024 11023 11019 11016 11012 11008 11003 10999 10996 10992 10989 10986 10982 10979
11028 11029 11031 11032 11033 11034 11036 11038 11040 11041 11042 11041 11039 11040 11040 11042 11041 11044 11045 11046 11042 11039 11032 11031 11030 11027 11026 11024 11024 11022 11020 11017 11014 11010 11006 11004 10998 10993 10991 10988 10984 10982 10979
11023 11025 11027 11028 11030 11031 11033 11035 11036 11037 11037 11037 11036 11036 11039 11040 11040 11041 11040 11042 11039 11036 11032 11028 11026 11025 11023 11021 11021 11019 11018 11015 11011 11006 11002 10999 10994 10991 10988 10986 10982 10978 10977
11018 11021 11023 11025 11027 11028 11030 11032 11033 11034 11033 11033 11032 11033 11035 11036 11038 11038 11036 11036 11035 11036 11033 11027 11024 11024 11021 11019 11016 11013 11012 11010 11007 11004 11001 10998 10992 10987 10982 10980 10979 10975 10973
11015 11018 11020 11022 11024 11025 11027 11028 11030 11031 11031 11030 11029 11029 11031 11033 11035 11036 11036 11034 11034 11033 11031 11024 11023 11025 11023 11018 11013 11010 11005 11006 11004 11000 10997 10995 10990 10984 10979 10975 10973 10970 10969
11012 11014 11015 11018 11020 11022 11023 11024 11026 11028 11028 11027 11026 11026 11028 11030 11032 11033 11032 11030 11030 11028 11024 11023 11022 11021 11021 11017 11011 11009 11004 11003 11002 10998 10995 10990 10985 10981 10978 10975 10970 10966 10964
11009 11010 11011 11012 11014 11016 11017 11018 11021 11024 11025 11025 11024 11023 11024 11026 11028 11029 11030 11029 11023 11023 11022 11021 11020 11019 11016 11017 11011 11008 11004 11002 10999 10994 10992 10987 10979 10978 10974 10969 10966 10963 10959
11006 11007 11008 11009 11009 11011 11012 11013 11015 11018 11019 11021 11020 11019 11020 11022 11024 11025 11026 11026 11019 11018 11019 11020 11018 11012 11008 11008 11009 11008 11004 11001 11007 10992 10987 10984 10979 10974 10970 10964 10960 10957 10954
11005 11004 11005 11006 11006 11007 11008 11008 11009 11011 11014 11015 11016 11016 11017 11018 11019 11020 11021 11021 11015 11013 11012 11013 11010 11006 10998 11002 11001 11001 10999 10997 10995 10989 10983 10977 10976 10970 10968 10964 10957 10950 10946
11004 11003 11002 11000 11001 11002 11004 11005 11005 11006 11008 11009 11011 11012 11012 11012 11013 11014 11015 11016 11014 11009 11006 11004 11003 11001 11000 10998 10995 10993 10996 10992 10987 10985 10982 10974 10971 10967 10962 10959 10951 10945 10941